Tracking 32954 objects as of 20-Jan-2026
HD Live streaming from Space Station
objects crossing your sky now

COSMOS 1275 DEB

Track COSMOS 1275 DEB now!
10-day predictions


NORAD ID: 39947
Int'l Code: 1981-053NP
Perigee: 926.9 km
Apogee: 1,097.0 km
Inclination: 83.0 °
Period: 105.2 minutes
Semi major axis: 7382 km
RCS: 0.0065 m2 (small)
Launch date: April 25, 1981
Source: Commonwealth of Independent States (former USSR) (CIS)
Launch site: PLESETSK MISSILE AND SPACE COMPLEX (PKMTR)

Note: This is SATELLITE DEBRIS
Your satellite tracking list
Your tracking list is empty




NASA's NSSDC Master Catalog

Two Line Element Set (TLE):
1 39947U 81053NH  26016.92337312  .00001395  00000-0  15394-2 0  9996
2 39947  83.0105  81.5137 0115193 295.9456 186.3193 13.68530576577459
Source of the keplerian elements: AFSPC